Location: Unspecified
(41.1637°N, 24.2901°E)
Time: 14:31:48
(UTC+01:00)

ARIANE 6 FM1 Upper Stage - Pass Details

Date: 29 January 2026
Orbit: 522 x 609 km, 62.0° (Epoch: 11 February)

Event Time Altitude Azimuth Distance (km) Brightness Sun altitude
Rises 16:54:20 0° 242° (WSW) 2,713 8.6 -4.1°
Reaches altitude 10° 16:56:46 10° 253° (WSW) 1,808 7.2 -4.5°
Maximum altitude 17:00:22 30° 315° (NW) 991 4.2 -5.2°
Drops below altitude 10° 17:03:54 10° 17° (NNE) 1,782 4.9 -5.8°
Enters shadow 17:06:16 - 29° (NNE) 2,657 5.7 -6.2°
